This demonstration page uses our WeatherBlox Daily Observations layout. Learn more.

41.55636, -103.73856

Hourly Observations for July 17, 2019

Temp ( °F °C ) Dew Point ( °F °C ) Humidity (%) Winds ( mph kmh ) Pressure ( in mb ) Visibility ( mi km ) Precip ( " mm )
12:58 am 00:58 Clear 78 25.6 53 11.4 41 41 SE 10 17 29.78 1008 10 16.0934 0 0
1:58 am 01:58 Clear 73 22.9 53 11.9 50 50 SE 9 15 29.8 1009 10 16.0934 0 0
2:58 am 02:58 Clear 71 21.4 56 13.2 60 60 SE 14 22 29.77 1008 10 16.0934 0 0
3:58 am 03:58 Partly Cloudy 69 20.5 57 13.8 66 66 S 14 22 29.65 1004 10 16.0934 0 0
4:58 am 04:58 Mostly Cloudy 68 19.8 54 12.4 63 63 S 16 26 29.68 1005 10 16.0934 0 0
5:58 am 05:58 Mostly Cloudy 68 20.2 53 11.6 58 58 S 15 24 29.66 1004 10 16.0934 0 0
6:58 am 06:58 Clear 65 18.2 55 12.6 70 70 S 10 17 29.69 1005 10 16.0934 0 0
7:58 am 07:58 Clear 64 18 57 13.7 76 76 S 14 22 29.74 1007 10 16.0934 0 0
8:58 am 08:58 Partly Cloudy 70 21 52 10.9 53 53 W 21 33 29.77 1008 10 16.0934 0 0
9:58 am 09:58 Mostly Cloudy 65 18.4 50 10 58 58 SW 8 13 29.74 1007 10 16.0934 0 0
10:58 am 10:58 Mostly Cloudy 64 17.8 52 10.9 64 64 NW 14 22 29.77 1008 10 16.0934 0 0
11:58 am 11:58 Mostly Sunny 59 15.2 54 12.3 83 83 NW 16 26 29.79 1009 10 16.0934 0 0
12:58 pm 12:58 Sunny 60 15.8 55 12.5 81 81 NW 17 28 29.81 1010 10 16.0934 0 0
1:58 pm 13:58 Sunny 63 17 55 12.8 76 76 NW 22 35 29.85 1011 10 16.0934 0 0
2:58 pm 14:58 Sunny 65 18.1 57 14 77 77 N 16 26 29.86 1011 10 16.0934 0 0
3:58 pm 15:58 Mostly Sunny 65 18.5 58 14.5 78 78 N 17 28 29.87 1012 10 16.0934 0 0
4:58 pm 16:58 Sunny 66 19.1 60 15.5 80 80 NE 7 11 29.89 1012 10 16.0934 0 0
5:58 pm 17:58 Sunny 70 21.1 60 15.5 71 71 NE 8 13 29.86 1011 10 16.0934 0 0
6:56 pm 18:56 Sunny 74 23.2 59 14.8 59 59 Calm 29.85 1011 10 16.0934 0 0
7:56 pm 19:56 Sunny 77 25.2 61 16.2 58 58 NE 5 7 29.83 1010 10 16.0934 0 0
9:56 pm 21:56 Sunny 82 27.9 60 15.6 47 47 SE 8 13 29.78 1008 10 16.0934 0 0
10:56 pm 22:56 Sunny 83 28.2 61 15.9 47 47 ESE 10 17 29.75 1008 10 16.0934 0 0
11:56 pm 23:56 Sunny 81 27.4 62 16.5 51 51 SSE 17 28 29.76 1008 10 16.0934 0 0

Powered by AerisWeather